Location: Lake Almanor
(40.2485°N, 121.1442°W)
Time: 22:39:38
(UTC-08:00)

N. Korean satellite - Pass Details

Date: 03 February 2020
Orbit: 456 x 505 km, 97.2° (Epoch: 27 February)

Event Time Altitude Azimuth Distance (km) Brightness Sun altitude
Rises 06:26:14 0° 1° (N) 2,575 10.1 -9.1°
Reaches altitude 10° 06:28:27 10° 351° (N) 1,697 9.1 -8.7°
Maximum altitude 06:31:43 31° 288° (WNW) 887 7.3 -8.1°
Drops below altitude 10° 06:35:00 10° 224° (SW) 1,703 9.0 -7.5°
Sets 06:37:13 0° 214° (SW) 2,587 10.1 -7.1°
